Weather History for Midland, MI

Change the Weather History Date:

Sunday, December 9, 2012

  Actual Average (KMBS) Record (KMBS)
Temperature  
Mean Temperature 30 °F 29 °F  
Max Temperature 34 °F 35 °F 53 °F (1999)
Min Temperature 27 °F 23 °F 5 °F (2000)
Degree Days  
Heating Degree Days 34    
Month to date heating degree days  
Since 1 July heating degree days  
Cooling Degree Days 0    
Month to date cooling degree days  
Year to date cooling degree days  
Moisture  
Dew Point 29 °F    
Average Humidity 89    
Maximum Humidity 99    
Minimum Humidity 78    
Precipitation  
Precipitation 0.00 in 0.07 in 0.25 in (2008)
Month to date precipitation 0.61  
Year to date precipitation 30.29  
Snow  
Snow 0.00 in - - ()
Month to date snowfall  
Since 1 July snowfall  
Snow Depth -    
Sea Level Pressure  
Sea Level Pressure 30.01 in    
Wind  
Wind Speed 5 mph (ENE)    
Max Wind Speed 21 mph    
Max Gust Speed 29 mph    
Visibility 8 miles    
Events Snow    
T = Trace of Precipitation, MM = Missing Value Source: NWS Daily Summary

Daily Weather History Graph

Daily Weather History Graph

Search for Another Location

Airport:

Trip Planner

Search our weather history database for the weather conditions in past years. The results will help you decide how hot, cold, wet, or windy it might be!

Date:

Astronomy

Dec. 09, 2012 Rise Set
Actual Time 7:59 AM EST 5:00 PM EST
Civil Twilight 7:26 AM EST 5:32 PM EST
Nautical Twilight 6:50 AM EST 6:08 PM EST
Astronomical Twilight 6:15 AM EST 6:43 PM EST
Moon 3:25 AM EST (12/9) 2:11 PM EST (12/9)
Length of Visible Light 10h 06m
Length of Day
9h 00m
Waning Crescent, 19% of the Moon is Illuminated
Dec 9
Waning Crescent
Dec 13
New
Dec 20
First Quarter
Dec 28
Full
Jan 4
Last Quarter

Hourly Weather History & Observations

Time (EST) Temp. Windchill Dew Point Humidity Pressure Visibility Wind Dir Wind Speed Gust Speed Precip Events Conditions
12:14 AM 27.5 °F - 27.0 °F 98% 30.19 in 10.0 mi Calm Calm - N/A   Overcast
12:34 AM 28.2 °F - 27.5 °F 97% 30.19 in 10.0 mi Calm Calm - N/A   Overcast
12:54 AM 28.4 °F - 27.9 °F 98% 30.20 in 10.0 mi Calm Calm - N/A   Overcast
1:14 AM 28.4 °F - 27.7 °F 97% 30.20 in 10.0 mi Calm Calm - N/A   Overcast
1:34 AM 28.2 °F - 27.5 °F 97% 30.20 in 10.0 mi Calm Calm - N/A   Scattered Clouds
1:54 AM 28.0 °F - 27.5 °F 98% 30.20 in 10.0 mi Calm Calm - N/A   Mostly Cloudy
2:13 AM 28.2 °F - 27.5 °F 97% 30.20 in 10.0 mi Calm Calm - N/A   Mostly Cloudy
2:34 AM 28.9 °F 22.8 °F 28.4 °F 98% 30.20 in 10.0 mi North 5.8 mph - N/A   Scattered Clouds
2:54 AM 30.2 °F 26.7 °F 27.5 °F 90% 30.19 in 10.0 mi NE 3.5 mph - N/A   Clear
3:14 AM 29.8 °F 26.3 °F 27.0 °F 89% 30.19 in 10.0 mi NNE 3.5 mph - N/A   Clear
3:34 AM 30.2 °F 25.4 °F 26.6 °F 86% 30.18 in 10.0 mi NNE 4.6 mph - N/A   Scattered Clouds
3:54 AM 30.2 °F 25.4 °F 26.4 °F 86% 30.18 in 10.0 mi NE 4.6 mph - N/A   Scattered Clouds
4:14 AM 30.2 °F - 26.1 °F 85% 30.19 in 10.0 mi Calm Calm - N/A   Clear
4:34 AM 30.0 °F 26.5 °F 25.3 °F 83% 30.17 in 10.0 mi NE 3.5 mph - N/A   Scattered Clouds
4:54 AM 30.2 °F - 24.8 °F 80% 30.17 in 10.0 mi Calm Calm - N/A   Overcast
5:14 AM 30.0 °F - 25.0 °F 82% 30.17 in 10.0 mi Calm Calm - N/A   Overcast
5:34 AM 30.2 °F - 24.6 °F 80% 30.17 in 10.0 mi Calm Calm - N/A   Overcast
5:54 AM 30.6 °F 25.8 °F 24.8 °F 79% 30.19 in 10.0 mi NE 4.6 mph - N/A   Overcast
6:14 AM 30.7 °F - 24.6 °F 78% 30.19 in 10.0 mi Calm Calm - N/A   Overcast
6:34 AM 30.4 °F - 24.4 °F 79% 30.19 in 10.0 mi Calm Calm - N/A   Overcast
6:54 AM 30.2 °F 25.4 °F 24.6 °F 80% 30.18 in 10.0 mi NE 4.6 mph - N/A   Scattered Clouds
7:14 AM 30.7 °F 26.0 °F 24.8 °F 79% 30.17 in 10.0 mi NE 4.6 mph - N/A   Clear
7:34 AM 30.2 °F 26.7 °F 24.8 °F 80% 30.16 in 10.0 mi East 3.5 mph - N/A   Scattered Clouds
7:54 AM 30.6 °F 22.4 °F 25.5 °F 82% 30.15 in 10.0 mi East 9.2 mph - N/A   Scattered Clouds
8:14 AM 31.1 °F 25.4 °F 26.2 °F 82% 30.15 in 10.0 mi East 5.8 mph - N/A   Scattered Clouds
8:35 AM 31.1 °F - 27.3 °F 86% 30.14 in 10.0 mi Calm Calm - N/A   Mostly Cloudy
8:54 AM 31.6 °F 28.3 °F 28.2 °F 87% 30.14 in 10.0 mi East 3.5 mph - N/A   Overcast
9:14 AM 32.2 °F - 29.3 °F 89% 30.15 in 10.0 mi Calm Calm - N/A   Overcast
9:34 AM 33.6 °F 28.4 °F 30.0 °F 87% 30.15 in 10.0 mi East 5.8 mph - N/A   Overcast
9:54 AM 33.8 °F 28.6 °F 30.0 °F 86% 30.15 in 10.0 mi East 5.8 mph - N/A   Overcast
10:15 AM 33.8 °F 27.0 °F 30.0 °F 86% 30.15 in 10.0 mi East 8.1 mph - N/A   Overcast
10:34 AM 33.8 °F 27.7 °F 30.2 °F 87% 30.14 in 10.0 mi East 6.9 mph - N/A   Overcast
10:54 AM 34.3 °F 27.0 °F 30.2 °F 85% 30.13 in 10.0 mi ENE 9.2 mph 16.1 mph N/A   Overcast
11:34 AM 34.3 °F 26.5 °F 30.2 °F 85% 30.11 in 10.0 mi ENE 10.4 mph - N/A   Overcast
11:54 AM 34.7 °F 25.9 °F 30.2 °F 84% 30.09 in 10.0 mi ENE 12.7 mph - N/A   Overcast
12:15 PM 34.3 °F 25.9 °F 30.0 °F 84% 30.07 in 10.0 mi ENE 11.5 mph 23.0 mph N/A   Overcast
12:34 PM 34.0 °F 24.2 °F 30.0 °F 85% 30.06 in 10.0 mi ENE 15.0 mph 21.9 mph N/A   Overcast
12:54 PM 33.8 °F 23.9 °F 29.8 °F 85% 30.04 in 10.0 mi ENE 15.0 mph 21.9 mph N/A   Overcast
1:14 PM 33.8 °F 22.8 °F 29.3 °F 84% 30.03 in 10.0 mi ENE 18.4 mph 25.3 mph N/A   Overcast
1:34 PM 33.4 °F 22.7 °F 29.3 °F 85% 30.00 in 10.0 mi ENE 17.3 mph 26.5 mph N/A   Overcast
1:54 PM 33.1 °F 21.5 °F 28.4 °F 83% 29.99 in 10.0 mi ENE 19.6 mph 27.6 mph N/A   Overcast
2:14 PM 33.1 °F 22.2 °F 28.0 °F 82% 29.97 in 10.0 mi NE 17.3 mph 26.5 mph N/A   Overcast
2:34 PM 32.9 °F 21.0 °F 28.2 °F 83% 29.97 in 5.0 mi ENE 20.7 mph 27.6 mph N/A Snow Light Snow
2:55 PM 32.4 °F 22.1 °F 28.4 °F 85% 29.95 in 1.2 mi ENE 15.0 mph 20.7 mph N/A Snow Light Snow
3:14 PM 31.8 °F 21.4 °F 29.1 °F 90% 29.95 in 0.2 mi ENE 15.0 mph 28.8 mph N/A Snow Snow
3:34 PM 31.1 °F 20.9 °F 29.7 °F 94% 29.93 in 0.5 mi ENE 13.8 mph 25.3 mph N/A Snow Light Snow
3:55 PM 31.1 °F 19.7 °F 29.8 °F 95% 29.90 in 0.5 mi ENE 17.3 mph 25.3 mph N/A Snow Light Snow
4:14 PM 31.3 °F 20.3 °F 29.8 °F 94% 29.90 in 1.0 mi ENE 16.1 mph 23.0 mph N/A Snow Light Snow
4:34 PM 31.8 °F 21.0 °F 30.0 °F 93% 29.89 in 4.0 mi ENE 16.1 mph 25.3 mph N/A Snow Light Snow
4:55 PM 31.6 °F 22.1 °F 29.3 °F 91% 29.89 in 7.0 mi East 12.7 mph 21.9 mph N/A   Overcast
5:14 PM 31.6 °F 21.6 °F 28.8 °F 89% 29.90 in 10.0 mi East 13.8 mph 21.9 mph N/A   Overcast
5:34 PM 31.6 °F 22.6 °F 28.4 °F 88% 29.89 in 7.0 mi ENE 11.5 mph 19.6 mph N/A Snow Light Snow
5:55 PM 31.8 °F 23.9 °F 28.4 °F 87% 29.87 in 10.0 mi East 9.2 mph 18.4 mph N/A   Overcast
6:14 PM 31.8 °F 22.3 °F 28.4 °F 87% 29.87 in 5.0 mi ENE 12.7 mph 17.3 mph N/A   Overcast
6:34 PM 31.8 °F 21.8 °F 29.1 °F 90% 29.85 in 3.0 mi ENE 13.8 mph 17.3 mph N/A   Overcast
6:54 PM 31.5 °F 21.8 °F 29.7 °F 93% 29.84 in 4.0 mi ENE 12.7 mph - N/A   Overcast
7:35 PM 31.1 °F 23.1 °F 30.2 °F 96% 29.82 in 4.0 mi ENE 9.2 mph 17.3 mph N/A   Overcast
7:54 PM 31.3 °F 23.9 °F 30.2 °F 96% 29.80 in 4.0 mi ENE 8.1 mph - N/A   Overcast
8:14 PM 31.5 °F 22.3 °F 30.2 °F 95% 29.78 in 4.0 mi ENE 11.5 mph - N/A   Overcast
8:35 PM 32.0 °F 24.2 °F 31.1 °F 96% 29.76 in 3.0 mi ENE 9.2 mph 18.4 mph N/A   Overcast
8:54 PM 32.0 °F 24.8 °F 31.6 °F 99% 29.75 in 4.0 mi NE 8.1 mph - N/A   Overcast
9:14 PM 32.4 °F 26.9 °F 32.0 °F 99% 29.73 in 4.0 mi East 5.8 mph - N/A   Overcast
9:35 PM 32.9 °F 25.9 °F 32.0 °F 96% 29.73 in 5.0 mi ENE 8.1 mph - N/A   Overcast
9:54 PM 32.9 °F 26.7 °F 32.4 °F 98% 29.72 in 7.0 mi ENE 6.9 mph - N/A   Overcast
10:15 PM 33.1 °F 28.7 °F 32.5 °F 98% 29.70 in 4.0 mi ENE 4.6 mph - N/A   Overcast
10:35 PM 33.1 °F 30.0 °F 32.5 °F 98% 29.70 in 4.0 mi NNE 3.5 mph - N/A   Overcast
10:54 PM 33.1 °F - 32.9 °F 99% 29.69 in 3.0 mi Calm Calm - N/A   Overcast
11:15 PM 33.1 °F - 32.9 °F 99% 29.67 in 4.0 mi Calm Calm - N/A   Overcast
11:34 PM 33.1 °F - 32.9 °F 99% 29.67 in 3.0 mi Calm Calm - N/A   Overcast
11:54 PM 33.1 °F - 32.9 °F 99% 29.65 in 2.5 mi Calm Calm - N/A   Overcast